Showing default

YAM-5, 55076

Orbit data source: Space-Track

YAM-5, 55076 is a payload satellite owned by Loft Orbital (US) in SSO that was launched on Tue, 03 Jan 2023 UTC via an FALCON 9 launch vehicle from the Air Force Eastern Test Range (AFETR). Payload-class satellites include a variety of spacecraft equipped with specific instruments for various scientific and technological missions. These include communications satellites like Starlink; space stations such as the ISS; scientific satellites like the Hubble; Earth observation satellites from companies like Planet Labs, Umbra, and HawkEye 360; GPS; miniature CubeSats for education and research; and military/defense satellites.

Loading next visibility...
Identifier
55076, 2023-001BV
Orbit
SSO
Country
Flag of USUS
Related business
Manufacturer
LeoStella
Mission
Operational Commercial Technology
Bus & Motor
YAM, Unknown motor
Mass
87 kg wet, 87 kg dry
Launch date (UTC)
2023-01-03 (3 years ago)
Launch vehicle
FALCON 9
Launch site
Air Force Eastern Test Range (AFETR)
Object type
Payload
Rocket body
Debris
Shape & HBR
Box, 1.0 m
Radar Cross Section
1.500 m², Medium (>0.1 m² and < 1m²)

Expand to show TLE details & history
Last TLE update: 7 hours ago

TLE from 7 hours ago
0 YAM-5
1 55076U 23001BV  26177.71864102  .00010806  00000-0  28385-3 0  9995
2 55076  97.3201 240.7564 0010090  79.4973 280.7409 15.38738744193579
Epoch: 2026-06-26T17:14Z
TLE epoch observation values (Epoch: 2026-06-26T17:14:50.584Z)
Latitude
0.00001°
Longitude
67.20251°
Altitude
451.679 km
Speed
7.642 km/s
True Right ascension
16h 03m 01s
True Declination
0° 00' 00"
Sunlit
Object was in full shadow at epoch
Visualization orbit readout
Latitude
Unknown
Longitude
Unknown
Altitude
Unknown
Speed
Unknown
Apparent Right ascension
Unknown
Apparent Declination
Unknown
Sunlit
N/A
Visualization observer readout
Local Sidereal Time
12:00:24
Azimuth
Unknown
Elevation
Unknown
Doppler factor
Unknown
Orbital elements
Apogee altitude
453.661 km
Perigee altitude
439.889 km
Semi-major axis
6,824.912 km
Eccentricity
0.00101
Inclination
97.3201°
RAAN
240.7564°
Arg. of periapsis
79.4973°
True anomaly
280.62728°
Mean anomaly
280.7409°
Eccentric anomaly
280.68409°
Mean motion
3.84944 °/min
Orbital period
93.52 mins
BSTAR
0.00028385
Loading maneuver chart data...
Computing Atmospheric mass density...

Documentation

Showing up to 5 results
|